Current weather by "City, St" or "zip code"  
 

Current Conditions: Elbert Mountain - Monument Pass, CO

Fair


66.0 F

Last Updated on Oct 24 2020, 11:55 am MDT
Humidity: 17%
Wind Speed: W 5.8 mph
Barometer 29.86 in
Dewpoint: 19.4 F
Visibility: 10.00 mi
Precip: --
Heat Index: NA
Wind Chill: NA
Current conditions at:

Elbert Mountain - Monument Pass, CO (KMNH)

Lat: 39.22317 Lon: 104.64226

Local Radar Image active severe weather and emergency alerts image image weather storm and storm spotter reports image weather observation monitoring service image
Local
Radar
Active
Alerts
Storm Reports Obs
Monitoring

Sign-up For Email & Text Message Weather Alert Notification Services



Advertise Here

Observation History for Elbert Mountain - Monument Pass, CO


Time Wind
(mph)
Vis
(mi)
Weather Precip (in) Temperature (F) Relative
Humidity
Wind
Chill
(F)
Heat
Index
(F)
Pressure
Air Dwpt altimeter
(in)
sea level
(mb)
Rmks
11:55 am MDT W 5.8 10.00 Fair -- 66.0 19.4 17% NA NA 29.86 M
10:55 am MDT SW 9.2 G 17.3 10.00 Fair -- 63.0 19.4 19% 62 NA 29.88 M
9:55 am MDT SW 11.5 10.00 Fair -- 59.0 24.8 27% 57 NA 29.89 M
9:35 am MDT SW 9.2 10.00 Fair -- 52.0 30.2 44% 49 NA 29.89 M
8:55 am MDT S 8.1 10.00 Fair -- 48.0 28.4 46% 44 NA 29.90 M
7:55 am MDT S 13.8 10.00 Fair -- 43.0 28.4 57% 36 NA 29.89 M
6:55 am MDT S 5.8 10.00 Fair -- 37.0 26.6 65% 32 NA 29.90 M
5:55 am MDT S 9.2 10.00 Fair -- 34.0 26.6 75% 27 NA 29.91 M
5:35 am MDT S 9.2 10.00 Fair -- 34.0 26.6 75% 27 NA 29.91 M
4:55 am MDT S 10.4 10.00 Fair -- 34.0 26.6 75% 26 NA 29.90 M
3:55 am MDT S 11.5 10.00 Fair -- 32.0 26.6 80% 23 NA 29.92 M
2:55 am MDT S 10.4 10.00 Fair -- 27.0 21.2 80% 17 NA 29.94 M
1:55 am MDT S 15.0 G 20.7 10.00 Fair -- 23.0 19.4 86% 10 NA 29.97 M
12:55 am MDT S 16.1 G 25.3 10.00 Fair -- 21.0 19.4 93% 7 NA 30.00 M
11:55 pm MDT S 19.6 G 26.5 10.00 Fair -- 21.0 19.4 93% 6 NA 30.02 M
10:55 pm MDT S 20.7 G 27.6 10.00 Fair and Breezy -- 21.0 19.4 93% 5 NA 30.05 M
9:55 pm MDT S 25.3 G 28.8 10.00 Fair and Breezy -- 21.0 19.4 93% 4 NA 30.07 M
9:35 pm MDT S 27.6 G 31.1 10.00 Fair and Windy -- 21.0 19.4 93% 3 NA 30.08 M
8:55 pm MDT S 25.3 G 31.1 10.00 Fair and Breezy -- 23.0 19.4 86% 7 NA 30.09 M
7:55 pm MDT S 21.9 G 29.9 10.00 Fair and Breezy -- 21.0 19.4 93% 5 NA 30.12 M
7:35 pm MDT S 19.6 G 26.5 10.00 Fair -- 21.0 19.4 93% 6 NA 30.13 M
6:55 pm MDT S 16.1 10.00 Fair -- 21.0 19.4 93% 7 NA 30.14 M
5:55 pm MDT S 20.7 G 27.6 10.00 Fair and Breezy -- 23.0 19.4 86% 8 NA 30.15 M
5:35 pm MDT S 21.9 G 27.6 10.00 Fair and Breezy -- 23.0 19.4 86% 8 NA 30.16 M

Regional Weather Observation


Elbert Mountain - Monument Pass, CO (KMNH)

Fair
66.0 F

Buckley Air Force Base Airport, CO (KBKF)

Partly Cloudy
54.0 F

Denver, Denver International Airport, CO (KDEN)

Mostly Cloudy
45.0 F

Denver Nexrad, CO (KFTG)

Overcast
30.0 F

Broomfield / Jeffco, CO (KBJC)

Mostly Cloudy
48.0 F

Wilkerson Pass, CO (K4BM)

Fair and Breezy
46.0 F